Location: Passau
(48.5830°N, 13.4830°E)
Time: 05:31:56
(UTC+02:00)

Vanguard 3 - Visible Passes

Search period start: 24 May 2024 00:00
Search period end: 03 June 2024 00:00
Orbit: 509 x 3233 km, 33.3° (Epoch: 23 May)

Date Brightness Start Highest point End Pass type
(mag) Time Alt. Az. Time Alt. Az. Time Alt. Az.
24 May 10.2 00:24:36 10° WSW 00:36:44 32° SSW 00:43:38 25° S visible
24 May 10.8 02:41:27 10° WSW 02:47:41 15° SW 02:47:41 15° SW visible
24 May 10.0 23:06:19 10° WSW 23:17:25 37° SSW 23:28:26 19° SE visible
25 May 10.5 01:19:46 10° WSW 01:30:39 23° SSW 01:32:31 22° SSW visible
25 May 9.7 21:48:48 10° WSW 21:58:21 39° S 22:13:07 10° SE visible
26 May 10.2 00:00:29 10° WSW 00:11:26 29° SSW 00:17:36 24° S visible
26 May 10.9 02:18:03 10° WSW 02:21:43 12° SW 02:21:43 12° SW visible
26 May 10.0 22:42:21 10° WSW 22:52:17 34° SSW 23:02:52 18° SSE visible
27 May 10.6 00:55:49 10° WSW 01:05:18 20° SSW 01:07:00 20° SSW visible
27 May 9.7 21:24:56 10° WSW 21:33:29 35° S 21:46:50 10° SE visible
27 May 10.3 23:36:31 10° WSW 23:46:14 26° SSW 23:52:24 21° S visible
28 May 10.9 01:56:21 10° SW 01:56:33 10° SW 01:56:33 10° SW visible
28 May 9.9 22:18:28 10° WSW 22:27:18 30° SSW 22:37:56 14° SSE visible
29 May 10.6 00:32:10 10° WSW 00:40:04 17° SSW 00:42:04 17° SSW visible
29 May 10.3 23:12:45 10° WSW 23:21:09 23° SSW 23:27:41 17° S visible
30 May 9.9 21:54:43 10° WSW 22:02:26 27° SSW 22:13:22 11° SSE visible
31 May 10.7 00:09:01 10° WSW 00:14:56 14° SSW 00:17:32 13° SSW visible
31 May 10.3 22:49:11 10° WSW 22:56:12 19° SSW 23:03:18 13° S visible
01 Jun 10.0 21:31:05 10° WSW 21:37:41 23° SSW 21:47:07 10° SSE visible
01 Jun 10.7 23:47:08 10° SW 23:49:56 11° SSW 23:52:59 10° SSW visible
02 Jun 10.4 22:25:57 10° SW 22:31:22 15° SSW 22:38:11 10° S visible
